Погода в Городее

Беларусь     53°18′54″N   26°32′25″E
темп.,
°C
ветер,
м/с
пор.,
м/с
влажн.,
%
обл.,
%
осадки,
мм/ч
давл.,
гПа
погр.,
м
7 марта, вс
вс700:00−4зюз6157932 0.0 1019421
03:00−3зюз7177866 0.0 1016634
06:00−2зюз91786100 0.0 1012967
09:00−1з111991100 0.1 10091119
12:000з121989100 0.1 10081267
15:000з11189699 0.3 10081231
18:00−1зсз71296100 3.1 1007954
21:00−2зсз61489100 3.7 1008812
8 марта, пн
пн800:00−5зсз6148367 0.0 1009529
03:00−7зсз6148633 0.0 1009509
06:00−5зсз7149249 0.1 1009701
09:00−4сз6109274 0.3 1011794
12:00−4сз478020 0.0 1013818
15:00−3сз577939 0.1 10141036
18:00−3сз488598 0.1 1014511
21:00−6зсз368998 0.1 1016128
9 марта, вт
вт900:00−7ссз369258 0.0 1018111
03:00−9ссз339339 0.0 101950
06:00−9ссз239545 0.0 102036
09:00−9ссз239563 0.0 102284
12:00−6с238094 0.0 1022630
15:00−5ссз227196 0.0 1023789
18:00−6зюз128279 0.0 102223
21:00−8зюз228466 0.0 102421
10 марта, ср
ср1000:00−9зюз238695 0.0 102425
03:00−9зюз338888 0.0 102444
06:00−10юз349047 0.0 102457
09:00−8зюз378873 0.0 1024168
12:00−4зюз488093 0.0 1023443
15:00−2зюз477771 0.0 1022690
18:00−3зюз34840 0.0 1021100
21:00−6юз45780 0.0 102266
11 марта, чт
чт1100:00−6юз457614 0.0 102186
03:00−6ююз477653 0.0 1020130
06:00−6ю51178100 0.0 1017230
09:00−4ю61277100 0.0 1015349
12:00−1ю71376100 0.0 1012632
15:00+1ю81481100 0.0 1009856
18:000ююз81498100 0.9 1005747
21:00+1ю81497100 3.8 1002453